Weather History for Concord, NC

Change the Weather History Date:

Saturday, April 19, 2014

  Actual Average (KCLT) Record (KCLT)
Temperature  
Mean Temperature 50 °F 60 °F  
Max Temperature 53 °F 73 °F 89 °F (1955)
Min Temperature 46 °F 48 °F 30 °F (1983)
Degree Days  
Heating Degree Days 16 6  
Month to date heating degree days 148  
Since 1 July heating degree days 3280  
Cooling Degree Days 0 1  
Month to date cooling degree days 18  
Year to date cooling degree days 23  
Moisture  
Dew Point 47 °F    
Average Humidity 91    
Maximum Humidity 100    
Minimum Humidity 77    
Precipitation  
Precipitation 0.03 in 0.10 in 2.08 in (2014)
Month to date precipitation 1.93  
Year to date precipitation 12.67  
Snow  
Snow 0.00 in 0.00 in 0.00 in ()
Month to date snowfall 0.0  
Since 1 July snowfall 4.3  
Snow Depth -    
Sea Level Pressure  
Sea Level Pressure 30.20 in    
Wind  
Wind Speed 7 mph (NNE)    
Max Wind Speed 13 mph    
Max Gust Speed 18 mph    
Visibility 6 miles    
Events Rain    
T = Trace of Precipitation, MM = Missing Value Source: NWS Daily Summary

Daily Weather History Graph

Daily Weather History Graph

Search for Another Location

Airport:

Trip Planner

Search our weather history database for the weather conditions in past years. The results will help you decide how hot, cold, wet, or windy it might be!

Date:

Astronomy

Apr. 19, 2014 Rise Set
Actual Time 6:45 AM EDT 7:59 PM EDT
Civil Twilight 6:18 AM EDT 8:25 PM EDT
Nautical Twilight 5:47 AM EDT 8:57 PM EDT
Astronomical Twilight 5:14 AM EDT 9:29 PM EDT
Moon No Moon Rise 10:07 AM EDT (4/19)
Length of Visible Light 14h 06m
Length of Day
13h 13m
Waning Gibbous, 79% of the Moon is Illuminated
Apr 19
Waning Gibbous
Apr 22
Last Quarter
Apr 29
New
May 6
First Quarter
May 14
Full

Hourly Weather History & Observations

Time (EDT) Temp. Windchill Dew Point Humidity Pressure Visibility Wind Dir Wind Speed Gust Speed Precip Events Conditions
12:15 AM 48.2 °F - 46.4 °F 93% 30.22 in 7.0 mi NNE 5.8 mph - N/A Rain Light Rain
12:35 AM 48.2 °F - 46.4 °F 93% 30.22 in 7.0 mi North 5.8 mph - N/A Rain Rain
12:55 AM 48.2 °F - 46.4 °F 93% 30.22 in 7.0 mi North 3.5 mph - N/A Rain Light Rain
1:15 AM 48.2 °F - 46.4 °F 93% 30.21 in 7.0 mi North 6.9 mph - N/A Rain Light Rain
1:35 AM 48.2 °F - 46.4 °F 93% 30.19 in 7.0 mi North 6.9 mph - 0.01 in Rain Light Rain
1:55 AM 48.2 °F - 46.4 °F 93% 30.20 in 5.0 mi NNE 4.6 mph - 0.01 in Rain Rain
2:15 AM 48.2 °F - 46.4 °F 93% 30.18 in 7.0 mi North 6.9 mph - N/A Rain Rain
2:35 AM 48.2 °F - 46.4 °F 93% 30.18 in 7.0 mi North 5.8 mph - N/A Rain Rain
2:55 AM 48.2 °F - 46.4 °F 93% 30.17 in 7.0 mi North 6.9 mph - N/A Rain Rain
3:15 AM 46.4 °F 42.4 °F 46.4 °F 100% 30.18 in 7.0 mi North 8.1 mph - N/A Rain Rain
3:35 AM 46.4 °F 42.4 °F 44.6 °F 93% 30.17 in 7.0 mi North 8.1 mph - N/A Rain Rain
3:55 AM 46.4 °F 41.1 °F 44.6 °F 93% 30.16 in 7.0 mi North 11.5 mph 17.3 mph N/A Rain Rain
4:15 AM 46.4 °F 41.5 °F 44.6 °F 93% 30.16 in 7.0 mi NNE 10.4 mph - N/A Rain Rain
4:35 AM 46.4 °F 41.1 °F 44.6 °F 93% 30.16 in 7.0 mi North 11.5 mph 17.3 mph N/A Rain Rain
4:55 AM 46.4 °F 42.9 °F 44.6 °F 93% 30.16 in 7.0 mi NNE 6.9 mph - N/A Rain Rain
5:15 AM 46.4 °F 41.5 °F 44.6 °F 93% 30.15 in 7.0 mi North 10.4 mph - N/A Rain Rain
5:35 AM 46.4 °F 42.4 °F 44.6 °F 93% 30.14 in 7.0 mi North 8.1 mph - N/A Rain Rain
5:55 AM 46.4 °F 42.9 °F 44.6 °F 93% 30.15 in 7.0 mi NNE 6.9 mph - N/A Rain Rain
6:15 AM 46.4 °F 42.9 °F 44.6 °F 93% 30.15 in 7.0 mi North 6.9 mph - 0.01 in Rain Light Rain
6:35 AM 46.4 °F 42.9 °F 44.6 °F 93% 30.14 in 7.0 mi North 6.9 mph - 0.01 in Rain Rain
6:51 AM 48.2 °F - 46.4 °F 93% 30.15 in 2.0 mi NNE 9.2 mph - N/A Rain Rain
7:51 AM 48.2 °F - 46.4 °F 93% 30.18 in 2.0 mi NNE 6.9 mph - N/A Rain Rain
8:56 AM 48.2 °F - 46.4 °F 93% 30.18 in 2.0 mi NNE 11.5 mph - N/A Rain Rain
9:57 AM 48.2 °F - 46.4 °F 93% 30.19 in 2.0 mi North 10.4 mph - N/A Rain Rain
10:51 AM 48.2 °F - 46.4 °F 93% 30.19 in 2.0 mi NNE 10.4 mph 18.4 mph N/A Rain Rain
11:59 AM 50.0 °F - 48.2 °F 94% 30.20 in 2.0 mi NNE 9.2 mph 18.4 mph N/A Rain Rain
12:57 PM 51.8 °F - 48.2 °F 88% 30.19 in 2.0 mi NNE 11.5 mph - N/A Rain Rain
1:55 PM 51.8 °F - 48.2 °F 88% 30.19 in 2.0 mi NNE 12.7 mph - N/A Rain Rain
2:55 PM 51.8 °F - 48.2 °F 88% 30.18 in 2.0 mi NNE 12.7 mph - N/A Rain Rain
3:55 PM 51.8 °F - 50.0 °F 94% 30.18 in 2.0 mi NNE 12.7 mph - N/A Rain Light Rain
4:55 PM 51.8 °F - 50.0 °F 94% 30.18 in 2.0 mi NNE 8.1 mph - N/A Rain Light Rain
5:55 PM 53.6 °F - 51.8 °F 94% 30.18 in 2.0 mi Calm Calm - N/A Rain Light Rain
6:55 PM 53.6 °F - 51.8 °F 94% 30.22 in 2.0 mi Calm Calm - N/A Rain Light Rain
7:55 PM 53.6 °F - 51.8 °F 94% 30.24 in 2.0 mi Calm Calm - N/A Rain Light Rain
8:55 PM 53.6 °F - 51.8 °F 94% 30.24 in 6.0 mi Calm Calm - N/A Rain Light Rain
9:55 PM 53.6 °F - 48.2 °F 82% 30.25 in 6.0 mi North 6.9 mph - N/A Rain Light Rain
10:15 PM 51.8 °F - 48.2 °F 88% 30.25 in 10.0 mi North 9.2 mph - N/A Rain Light Rain
10:35 PM 53.6 °F - 46.4 °F 77% 30.26 in 10.0 mi North 8.1 mph - N/A   Overcast
10:52 PM 53.6 °F - 46.4 °F 77% 30.26 in 6.0 mi NNE 4.6 mph - N/A Rain Light Rain
10:55 PM 53.6 °F - 46.4 °F 77% 30.26 in 10.0 mi NNE 3.5 mph - N/A Rain Light Rain
11:15 PM 51.8 °F - 46.4 °F 82% 30.26 in 10.0 mi North 3.5 mph - N/A   Light Drizzle
11:35 PM 51.8 °F - 48.2 °F 88% 30.26 in 10.0 mi Calm Calm - 0.01 in Rain Light Rain
11:55 PM 51.8 °F - 48.2 °F 88% 30.25 in 10.0 mi Calm Calm - 0.01 in Rain Light Rain